User: anonymous   Login
Location: Newark
(12.4436°N, 0.6167°W)
Time: 01:59:07
(UTC+00:00)
Language:

Courier 1B - Orbit

View from above orbital plane
View from above orbital plane
View from above satellite
View from above satellite

Ground track
Ground track

The orbit data is extracted from the following two-line orbital elements,

1    58U 60013A   19342.74773847  .00000094  00000-0  11306-4 0  9997
2    58  28.3302 347.2017 0164882 282.1248  76.0870 13.46319577913291
Epoch (UTC): 08 December 2019 17:56:44
Eccentricity: 0.0164882
inclination: 28.3302°
perigee height: 963 km
apogee height: 1209 km
right ascension of ascending node: 347.2017°
argument of perigee: 282.1248°
revolutions per day: 13.46319577
mean anomaly at epoch: 76.0870°
orbit number at epoch: 91329

The dashed part of the orbit path shows where the satellite is in the earth's shadow,  

DLR